Location: ???? ???? ?????
(31.2680°N, 31.7283°E)
Time: 19:59:30
(UTC+00:00)

Cosmos 2082 Rocket - Pass Details

Date: 13 July 2020
Orbit: 833 x 853 km, 71.0° (Epoch: 05 August)

Event Time Altitude Azimuth Distance (km) Brightness Sun altitude
Exits shadow 22:58:55 20° 80° (E) 1,870 4.2 -35.2°
Drops below altitude 10° 23:01:45 10° 52° (NE) 2,483 5.2 -35.0°
Sets 23:04:42 0° 38° (NE) 3,421 6.3 -34.8°
